Location: Grums
(59.3529°N, 13.1129°E)
Time: 00:11:07
(UTC+01:00)

SEEDS - Pass Details

Date: 07 December 2021
Orbit: 584 x 600 km, 97.6° (Epoch: 27 January)

Event Time Altitude Azimuth Distance (km) Brightness Sun altitude
Rises 07:17:32 0° 9° (N) 2,829 ? -10.0°
Reaches altitude 10° 07:20:55 10° 340° (NNW) 1,922 ? -9.6°
Maximum altitude 07:22:34 12° 316° (NW) 1,777 ? -9.4°
Enters shadow 07:22:56 12° 310° (NW) 1,784 ? -9.4°
